CW1707 Weather Reports


time (UTC)temp
F
wind
direction
speed
knots
gust
knots
rain 1hr
in
rain 24hr
in
rain mn
in
humidity
%
barometer
mb
20260906171704 94 126 2.6 6.1 0.00 0.00 0.00 54 1011.7
20260906171204 94 123 1.7 4.3 0.00 0.00 0.00 54 1011.8
20260906170703 95 62 2.6 6.1 0.00 0.00 0.00 51 1011.9
20260906170204 96 107 1.7 5.2 0.00 0.00 0.00 52 1012.0
20260906164704 96 118 1.7 5.2 0.00 0.00 0.00 53 1012.1
20260906163703 95 178 1.7 5.2 0.00 0.00 0.00 53 1012.2
20260906163203 95 163 1.7 4.3 0.00 0.00 0.00 54 1012.3
20260906160705 93 153 1.7 5.2 0.00 0.00 0.00 53 1012.4
20260906160206 92 151 1.7 5.2 0.00 0.00 0.00 52 1012.3
20260906154705 90 97 2.6 5.2 0.00 0.00 0.00 50 1012.2
20260906154205 90 79 0.9 2.6 0.00 0.00 0.00 50 1012.2
20260906153706 90 134 1.7 2.6 0.00 0.00 0.00 48 1012.2
20260906153205 89 118 1.7 6.1 0.00 0.00 0.00 46 1012.1
20260906151705 88 159 2.6 5.2 0.00 0.00 0.00 31 1012.0
20260906151205 87 70 1.7 2.6 0.00 0.00 0.00 35 1012.1
20260906144206 86 143 1.7 6.1 0.00 0.00 0.00 20 1012.5
20260906143206 85 155 1.7 6.1 0.00 0.00 0.00 5 1012.5
20260906141705 83 58 1.7 5.2 0.00 0.00 0.00 3 1012.5
20260906141205 83 59 2.6 7.0 0.00 0.00 0.00 3 1012.5
20260906140706 82 100 0.9 2.6 0.00 0.00 0.00 3 1012.5
20260906140205 82 71 2.6 7.8 0.00 0.00 0.00 3 1012.4
20260906134706 81 111 2.6 6.1 0.00 0.00 0.00 3 1012.5
20260906134205 81 73 2.6 5.2 0.00 0.00 0.00 3 1012.5
20260906133705 80 93 1.7 5.2 0.00 0.00 0.00 3 1012.5
20260906133206 80 74 2.6 7.8 0.00 0.00 0.00 3 1012.4
20260906131705 79 72 2.6 7.0 0.00 0.00 0.00 3 1012.3
20260906131206 79 58 2.6 6.1 0.00 0.00 0.00 3 1012.2
20260906130705 79 75 1.7 6.1 0.00 0.00 0.00 3 1012.2
20260906124205 77 60 1.7 4.3 0.00 0.00 0.00 3 1011.9
20260906123705 77 66 2.6 6.1 0.00 0.00 0.00 3 1011.8
20260906123205 77 70 2.6 7.8 0.00 0.00 0.00 3 1011.8
20260906121705 76 63 2.6 4.3 0.00 0.00 0.00 3 1011.7
20260906120705 76 60 0.9 2.6 0.00 0.00 0.00 3 1011.6
20260906120205 76 73 0.9 4.3 0.00 0.00 0.00 3 1011.6
20260906114705 76 69 1.7 2.6 0.00 0.00 0.00 3 1011.4
20260906113705 76 93 0.9 2.6 0.00 0.00 0.00 3 1011.3
20260906113205 76 75 1.7 4.3 0.00 0.00 0.00 3 1011.3
20260906111705 77 53 0.9 2.6 0.00 0.00 0.00 3 1011.2
20260906110705 77 80 0.9 1.7 0.00 0.00 0.00 3 1011.1
20260906110205 77 80 1.7 4.3 0.00 0.00 0.00 3 1011.0
20260906104205 77 81 1.7 2.6 0.00 0.00 0.00 3 1011.1
20260906101705 77 72 0.9 2.6 0.00 0.00 0.00 3 1011.0
20260906101205 77 76 1.7 2.6 0.00 0.00 0.00 3 1010.9
20260906100705 77 73 1.7 4.3 0.00 0.00 0.00 3 1011.0
20260906100205 77 66 1.7 4.3 0.00 0.00 0.00 3 1011.0
20260906094705 77 71 0.9 2.6 0.00 0.00 0.00 3 1010.8
20260906093705 76 84 1.7 2.6 0.00 0.00 0.00 3 1010.7
20260906091705 76 36 1.7 2.6 0.00 0.00 0.00 3 1010.6
20260906090705 75 53 0.9 2.6 0.00 0.00 0.00 3 1010.6
20260906090205 76 53 0.0 1.7 0.00 0.00 0.00 3 1010.5
20260906084704 76 53 0.0 0.0 0.00 0.00 0.00 3 1010.5
20260906084205 76 53 0.0 0.0 0.00 0.00 0.00 3 1010.4
20260906083205 76 53 0.0 2.6 0.00 0.00 0.00 3 1010.3
20260906081705 76 65 0.9 1.7 0.00 0.00 0.00 3 1010.2
20260906081205 76 65 0.9 2.6 0.00 0.00 0.00 3 1010.2
20260906080205 76 65 0.0 0.0 0.00 0.00 0.00 3 1010.2
20260906074705 76 65 0.0 0.0 0.00 0.00 0.00 3 1010.2
20260906074205 76 65 0.0 0.0 0.00 0.00 0.00 3 1010.3
20260906073705 76 65 0.0 1.7 0.00 0.00 0.00 3 1010.2
20260906073205 76 65 0.0 0.9 0.00 0.00 0.00 3 1010.2
20260906071704 77 65 0.9 1.7 0.00 0.00 0.00 3 1010.2
20260906071205 77 65 0.0 1.7 0.00 0.00 0.00 3 1010.2
20260906070705 77 65 0.9 1.7 0.00 0.00 0.00 3 1010.3
20260906064704 77 65 0.0 0.0 0.00 0.00 0.00 3 1010.5
20260906064205 77 65 0.0 0.0 0.00 0.00 0.00 3 1010.6
20260906063705 77 65 0.0 0.9 0.00 0.00 0.00 3 1010.7
20260906063205 77 65 0.0 1.7 0.00 0.00 0.00 3 1010.7
20260906061704 77 65 0.0 0.0 0.00 0.00 0.00 3 1010.6
20260906061204 78 65 0.0 0.0 0.00 0.00 0.00 3 1010.7
20260906060705 78 65 0.0 0.0 0.00 0.00 0.00 3 1010.6
20260906060205 78 65 0.0 2.6 0.00 0.00 0.00 3 1010.7
20260906054704 78 65 0.0 0.9 0.00 0.00 0.00 3 1010.7
20260906054205 78 65 0.0 1.7 0.00 0.00 0.00 3 1010.7
20260906053705 78 65 0.9 1.7 0.00 0.00 0.00 3 1010.8
20260906053205 78 65 0.0 2.6 0.00 0.00 0.00 3 1010.8
20260906051205 78 65 0.0 0.0 0.00 0.00 0.00 3 1010.8
20260906050704 78 65 0.0 0.0 0.00 0.00 0.00 3 1010.8
20260906050204 78 65 0.0 0.0 0.00 0.00 0.00 3 1010.7
20260906044705 79 65 0.0 0.0 0.00 0.00 0.00 3 1010.7
20260906044205 79 65 0.0 0.0 0.00 0.00 0.00 3 1010.7
20260906041705 80 65 0.0 0.9 0.00 0.00 0.00 3 1010.5
20260906041204 80 65 0.0 1.7 0.00 0.00 0.00 3 1010.5
20260906040204 80 65 0.0 2.6 0.00 0.00 0.00 3 1010.3
20260906034205 79 190 0.0 0.0 0.00 0.00 0.00 3 1010.1
20260906033704 79 190 0.0 0.9 0.00 0.00 0.00 3 1010.1
20260906033204 80 190 0.0 0.0 0.00 0.00 0.00 3 1010.1
20260906031705 80 190 0.0 0.0 0.00 0.00 0.00 3 1010.1
20260906031205 80 190 0.0 0.0 0.00 0.00 0.00 3 1010.0
20260906024205 81 190 0.0 0.0 0.00 0.00 0.00 8 1009.6
20260906023704 81 190 0.0 0.0 0.00 0.00 0.00 11 1009.5
20260906023205 81 190 0.0 0.0 0.00 0.00 0.00 15 1009.5
20260906021704 82 190 0.0 0.0 0.00 0.00 0.00 35 1009.2
20260906021204 83 190 0.0 0.0 0.00 0.00 0.00 39 1009.1
20260906020205 83 190 0.0 0.0 0.00 0.00 0.00 46 1009.0
20260906014704 84 190 0.0 0.0 0.00 0.00 0.00 51 1008.7
20260906014204 84 190 0.0 0.0 0.00 0.00 0.00 53 1008.6
20260906013704 84 190 0.0 0.0 0.00 0.00 0.00 56 1008.6
20260906013204 85 190 0.0 0.0 0.00 0.00 0.00 59 1008.6
20260906011704 86 190 0.0 0.0 0.00 0.00 0.00 60 1008.6
20260906010705 87 190 0.0 0.0 0.00 0.00 0.00 60 1008.5
20260906010204 87 190 0.0 0.0 0.00 0.00 0.00 58 1008.5
20260906004704 89 190 0.0 0.0 0.00 0.00 0.00 59 1008.5
20260906004204 89 190 0.0 0.0 0.00 0.00 0.00 58 1008.6
20260906003704 89 190 0.0 0.0 0.00 0.00 0.00 58 1008.6
20260906003204 90 190 0.0 0.0 0.00 0.00 0.00 58 1008.6
20260906001705 91 190 0.0 0.0 0.00 0.00 0.00 58 1008.6
20260906001204 91 190 0.0 0.0 0.00 0.00 0.00 57 1008.6
20260906000204 92 190 0.0 0.0 0.00 0.00 0.00 55 1008.6
20260905234705 94 190 0.0 0.0 0.00 0.00 0.00 53 1008.6
20260905233704 95 190 0.0 0.0 0.00 0.00 0.00 49 1008.6
20260905233204 95 190 0.0 0.0 0.00 0.00 0.00 48 1008.5
20260905231705 96 190 0.0 0.0 0.00 0.00 0.00 46 1008.3
20260905231204 97 190 0.0 0.0 0.00 0.00 0.00 48 1008.2
20260905230204 97 190 0.0 0.9 0.00 0.00 0.00 46 1008.2
20260905224704 97 190 0.0 0.0 0.00 0.00 0.00 47 1008.2
20260905224204 98 190 0.0 0.0 0.00 0.00 0.00 46 1008.2
20260905223705 98 190 0.0 0.9 0.00 0.00 0.00 44 1008.3
20260905223204 98 190 0.0 0.0 0.00 0.00 0.00 45 1008.3
20260905221704 99 190 0.0 1.7 0.00 0.00 0.00 42 1008.2
20260905221204 99 190 0.9 2.6 0.00 0.00 0.00 41 1008.2
20260905220704 99 171 0.9 1.7 0.00 0.00 0.00 43 1008.2
20260905220204 99 171 0.0 4.3 0.00 0.00 0.00 42 1008.2
20260905214704 100 165 1.7 4.3 0.00 0.00 0.00 41 1008.5
20260905214204 101 163 0.0 0.0 0.00 0.00 0.00 40 1008.6
20260905213704 101 163 0.0 2.6 0.00 0.00 0.00 39 1008.7
20260905213203 101 96 0.9 2.6 0.00 0.00 0.00 41 1008.7
20260905211704 102 132 0.0 1.7 0.00 0.00 0.00 40 1009.0
20260905210704 102 190 0.9 4.3 0.00 0.00 0.00 39 1009.1
20260905204204 101 185 2.6 5.2 0.00 0.00 0.00 40 1009.5
20260905203704 101 253 0.9 2.6 0.00 0.00 0.00 39 1009.6
20260905203204 101 272 0.9 2.6 0.00 0.00 0.00 38 1009.6
20260905201704 102 170 0.9 2.6 0.00 0.00 0.00 40 1009.7
20260905201204 102 61 1.7 2.6 0.00 0.00 0.00 38 1009.7
20260905200704 102 134 0.9 2.6 0.00 0.00 0.00 40 1009.6
20260905200203 102 197 0.9 7.8 0.00 0.00 0.00 40 1009.7
20260905194704 103 167 2.6 6.1 0.00 0.00 0.00 39 1009.8
20260905194203 103 162 0.9 4.3 0.00 0.00 0.00 39 1009.9
20260905193704 103 259 1.7 4.3 0.00 0.00 0.00 38 1009.9
20260905193203 103 186 2.6 6.1 0.00 0.00 0.00 40 1010.0
20260905191204 103 136 0.9 5.2 0.00 0.00 0.00 40 1010.2
20260905190703 102 154 2.6 7.0 0.00 0.00 0.00 41 1010.3
20260905190203 102 159 1.7 6.1 0.00 0.00 0.00 41 1010.4
20260905184704 101 162 1.7 5.2 0.00 0.00 0.00 42 1010.5
20260905183704 101 87 0.9 4.3 0.00 0.00 0.00 41 1010.5
20260905183204 100 189 1.7 5.2 0.00 0.00 0.00 45 1010.5
20260905181704 98 309 0.9 2.6 0.00 0.00 0.00 44 1010.6
20260905180704 99 189 0.9 2.6 0.00 0.00 0.00 42 1010.7
20260905180204 100 277 0.9 4.3 0.00 0.00 0.00 42 1010.8
20260905174704 100 329 1.7 5.2 0.00 0.00 0.00 41 1011.0
20260905174203 99 315 0.9 2.6 0.00 0.00 0.00 44 1011.1
20260905173703 99 256 2.6 4.3 0.00 0.00 0.00 44 1011.2